Location: Carrigahorig
(53.0625°N, 8.1439°W)
Time: 01:04:26
(UTC+00:00)

COSMOS 2406 - Pass Details

Date: 15 May 2026
Orbit: 846 x 858 km, 71.0° (Epoch: 9 June)

Event Time Altitude Azimuth Distance (km) Brightness Sun altitude
Rises 21:21:49 0° 198° (SSW) 3,422 6.1 -7.4°
Reaches altitude 10° 21:24:17 10° 196° (SSW) 2,489 5.4 -7.6°
Maximum altitude 21:29:56 65° 116° (ESE) 944 3.3 -8.2°
Drops below altitude 10° 21:35:37 10° 36° (NE) 2,501 5.8 -8.8°
Sets 21:38:06 0° 33° (NNE) 3,439 6.6 -9.0°
